Showing default

COSMOS 2466 (GLONASS), 37137

Orbit data source: Space-Track

COSMOS 2466 (GLONASS), 37137 is a Commonwealth of Independent States-origin payload satellite in MEO that was launched on Thu, 02 Sep 2010 UTC via a PROTON-M/DM-2 launch vehicle from the Tyuratam Missile And Space Complex (TTMTR). Payload-class satellites include a variety of spacecraft equipped with specific instruments for various scientific and technological missions. These include communications satellites like Starlink; space stations such as the ISS; scientific satellites like the Hubble; Earth observation satellites from companies like Planet Labs, Umbra, and HawkEye 360; GPS; miniature CubeSats for education and research; and military/defense satellites.

Loading next visibility...
Identifier
37137, 2010-041A
Orbit
MEO
Last TLE update
4 days ago
Origin
Manufacturer
Resehetnev ISS
Mission
Non-operational Defense Navigation
Bus & Motor
URAGAN, Unknown motor
Mass
1,450 kg wet, ~1,200 kg dry
Launch date (UTC)
2010-09-02 (15 years ago)
Launch vehicle
PROTON-M/DM-2
Launch site
Tyuratam Missile And Space Complex (TTMTR)
Object type
Payload
Rocket body
Debris
Shape & HBR
Cyl + 1 Ant + 2 Pan, 7.8 m
Radar Cross Section
8.467 m², Large (>1 m²)

Expand to show TLE details & history

TLE from 4 days ago
0 COSMOS 2466 (GLONASS)
1 37137U 10041A   25187.94554542  .00000113  00000-0  00000+0 0  9992
2 37137  63.8938 201.9089 0017819 180.9359   2.5251  2.13112764115548
Epoch: 2025-07-06T22:41Z
TLE epoch observation values (Epoch: 2025-07-06T22:41:35.124Z)
Latitude
-3.12464°
Longitude
117.88746°
Altitude
19,084.62 km
Speed
3.96 km/s
True Right ascension
01h 33m 46s
True Declination
-3° 07' 10"
Sunlit
Object was in daylight at epoch
Visualization orbit readout
Latitude
32.57689°
Longitude
97.97094°
Altitude
19,095.525 km
Speed
3.959 km/s
Apparent Right ascension
00h 44m 11s
Apparent Declination
20° 49' 45"
Sunlit
Object is in daylight
Visualization observer readout
Local Sidereal Time
15:04:07
Azimuth
35.044° NE
Elevation
-21.048°
Doppler factor
1
Orbital elements
Apogee altitude
19,174.133 km
Perigee altitude
19,083.232 km
Semi-major axis
25,506.819 km
Eccentricity
0.00178
Inclination
63.8938°
RAAN
201.9089°
Arg. of periapsis
180.9359°
True anomaly
Unknown
Mean anomaly
2.5251°
Eccentric anomaly
Unknown
Mean motion
0.53279 °/min
Orbital period
675.68 mins
BSTAR
0
Loading maneuver chart data...
Loading SW <> Apogee altitude chart data...
Loading historical data...
Loading historical data...
Loading historical data...
Loading historical data...
Loading historical data...
Loading historical data...
Loading historical data...

COSMOS 2466 (GLONASS) Visibility forecast

Observer location: undefined°, undefined°

Span
Click to sort rows by Start time (UTC) header in descending order
Start Az.
Max El. time (UTC)
Max El. Az.
Max El.
End time (UTC)
End Az.
244 mins2025-07-11 11:47:30.451Z326.273° NNW2025-07-11 13:49:30.451Z278.137° WNW39.767°2025-07-11 15:51:30.451Z212.558° SW
159 mins2025-07-11 21:06:30.451Z100.937° ESE2025-07-11 22:27:30.451Z60.167° ENE24.746°2025-07-11 23:45:30.451Z25.528° NE
|